,,Stat5,,Stat1,,Stat2,,Stat3,,Stat4,,Wind1,,Wind1,
time,status,PA1M_AVG,status,PR1M_SUM,status,RH1M_AVG,status,SR1M_AVG,status,TA1M_AVG,status,W1dAve1m,status,W1sAve1m,
2000-11-22, 00:00:00,VALID,916.181,VALID,0,VALID,99.7637,VALID,0,VALID,19.2738,VALID,198,VALID,0,
2000-11-22, 00:01:01,VALID,916.16,VALID,0,VALID,99.7726,VALID,0,VALID,19.2837,VALID,212,VALID,0,
2000-11-22, 00:02:00,VALID,916.148,VALID,0,VALID,99.7688,VALID,0,VALID,19.2767,VALID,217,VALID,0,
2000-11-22, 00:03:01,VALID,916.13,VALID,0,VALID,99.7574,VALID,0,VALID,19.2834,VALID,240,VALID,0,
2000-11-22, 00:04:00,VALID,916.123,VALID,0,VALID,99.765,VALID,0,VALID,19.3003,VALID,308,VALID,0,
2000-11-22, 00:05:00,VALID,916.113,VALID,0,VALID,99.7739,VALID,0,VALID,19.2869,VALID,308,VALID,0,
2000-11-22, 00:06:00,VALID,916.113,VALID,0,VALID,99.7739,VALID,0,VALID,19.2971,VALID,293,VALID,0,
2000-11-22, 00:07:00,VALID,916.103,VALID,0,VALID,99.7701,VALID,0,VALID,19.2939,VALID,291,VALID,0,
2000-11-22, 00:08:00,VALID,916.091,VALID,0,VALID,99.7714,VALID,0,VALID,19.2936,VALID,276,VALID,0,
2000-11-22, 00:09:00,VALID,916.072,VALID,0,VALID,99.7739,VALID,-0.0169808,VALID,19.2998,VALID,269,VALID,0,
2000-11-22, 00:10:00,VALID,916.067,VALID,0,VALID,99.7803,VALID,0,VALID,19.2998,VALID,244,VALID,0,
2000-11-22, 00:11:00,VALID,916.056,VALID,0,VALID,99.7879,VALID,0,VALID,19.2902,VALID,214,VALID,0,
2000-11-22, 00:12:00,VALID,916.037,VALID,0,VALID,99.7777,VALID,0,VALID,19.3001,VALID,207,VALID,0,
2000-11-22, 00:13:00,VALID,916.037,VALID,0,VALID,99.7955,VALID,-0.0169808,VALID,19.2864,VALID,205,VALID,0,
2000-11-22, 00:14:01,VALID,916.036,VALID,0,VALID,99.8044,VALID,0,VALID,19.32,VALID,204,VALID,0,
2000-11-22, 00:15:01,VALID,916.028,VALID,0,VALID,99.7968,VALID,0,VALID,19.3058,VALID,198,VALID,0,
2000-11-22, 00:16:00,VALID,916.028,VALID,0,VALID,99.8171,VALID,0,VALID,19.3257,VALID,192,VALID,0,
2000-11-22, 00:17:00,VALID,916.026,VALID,0,VALID,99.8222,VALID,-0.0169808,VALID,19.3359,VALID,192,VALID,0,
2000-11-22, 00:18:00,VALID,916.018,VALID,0,VALID,99.8121,VALID,0,VALID,19.322,VALID,192,VALID,0,
2000-11-22, 00:19:00,VALID,916.01,VALID,0,VALID,99.8019,VALID,0,VALID,19.2994,VALID,192,VALID,0,
2000-11-22, 00:20:01,VALID,916.015,VALID,0,VALID,99.7955,VALID,0,VALID,19.2998,VALID,194,VALID,0,
2000-11-22, 00:21:01,VALID,916.011,VALID,0,VALID,99.8057,VALID,0,VALID,19.3036,VALID,194,VALID,0,
2000-11-22, 00:22:00,VALID,915.998,VALID,0,VALID,99.8108,VALID,0,VALID,19.3001,VALID,194,VALID,0,
2000-11-22, 00:23:01,VALID,915.999,VALID,0,VALID,99.8171,VALID,0,VALID,19.3162,VALID,198,VALID,0,
2000-11-22, 00:24:01,VALID,915.994,VALID,0,VALID,99.8324,VALID,0,VALID,19.3195,VALID,205,VALID,0,
2000-11-22, 00:25:01,VALID,915.976,VALID,0,VALID,99.8273,VALID,0.0169808,VALID,19.3319,VALID,221,VALID,0,
2000-11-22, 00:26:00,VALID,915.974,VALID,0,VALID,99.826,VALID,0,VALID,19.3317,VALID,221,VALID,0,
2000-11-22, 00:27:00,VALID,915.96,VALID,0,VALID,99.8108,VALID,0.0169808,VALID,19.3389,VALID,204,VALID,0,
2000-11-22, 00:28:00,VALID,915.966,VALID,0,VALID,99.8108,VALID,0,VALID,19.3197,VALID,195,VALID,0,
2000-11-22, 00:29:01,VALID,915.959,VALID,0,VALID,99.8108,VALID,0,VALID,19.3063,VALID,195,VALID,0,
2000-11-22, 00:30:01,VALID,915.954,VALID,0,VALID,99.8044,VALID,0,VALID,19.2899,VALID,195,VALID,0,
2000-11-22, 00:31:00,VALID,915.952,VALID,0,VALID,99.8082,VALID,0,VALID,19.2869,VALID,195,VALID,0,
2000-11-22, 00:32:00,VALID,915.926,VALID,0,VALID,99.8108,VALID,0,VALID,19.2802,VALID,195,VALID,0,
2000-11-22, 00:33:00,VALID,915.938,VALID,0,VALID,99.8159,VALID,-0.0679233,VALID,19.2911,VALID,195,VALID,0,
2000-11-22, 00:34:00,VALID,915.919,VALID,0,VALID,99.8299,VALID,-0.118866,VALID,19.2953,VALID,198,VALID,0,
2000-11-22, 00:35:00,VALID,915.915,VALID,0,VALID,99.8184,VALID,-0.0849042,VALID,19.275,VALID,201,VALID,0,
2000-11-22, 00:36:01,VALID,915.913,VALID,0.2,VALID,99.8146,VALID,-0.101885,VALID,19.2851,VALID,229,VALID,0,
2000-11-22, 00:37:00,VALID,915.91,VALID,0,VALID,99.8273,VALID,-0.101885,VALID,19.2849,VALID,232,VALID,0.140408,
2000-11-22, 00:38:01,VALID,915.909,VALID,0,VALID,99.826,VALID,-0.101885,VALID,19.2983,VALID,220,VALID,0.635485,
2000-11-22, 00:39:00,VALID,915.898,VALID,0,VALID,99.8299,VALID,-0.101885,VALID,19.308,VALID,228,VALID,0.58817,
2000-11-22, 00:40:01,VALID,915.882,VALID,0,VALID,99.8248,VALID,-0.118866,VALID,19.2986,VALID,225,VALID,0.403927,
2000-11-22, 00:41:00,VALID,915.862,VALID,0,VALID,99.8121,VALID,-0.118866,VALID,19.2946,VALID,209,VALID,0.00183824,
2000-11-22, 00:42:00,VALID,915.842,VALID,0,VALID,99.8159,VALID,-0.101885,VALID,19.2849,VALID,216,VALID,0,
2000-11-22, 00:43:00,VALID,915.818,VALID,0,VALID,99.8044,VALID,-0.101885,VALID,19.305,VALID,208,VALID,0,
2000-11-22, 00:44:01,VALID,915.797,VALID,0.2,VALID,99.7968,VALID,-0.118866,VALID,19.2894,VALID,206,VALID,0,
2000-11-22, 00:45:01,VALID,915.777,VALID,0,VALID,99.8095,VALID,-0.118866,VALID,19.2824,VALID,231,VALID,0,
2000-11-22, 00:46:00,VALID,915.743,VALID,0,VALID,99.8184,VALID,-0.118866,VALID,19.2856,VALID,213,VALID,0,
2000-11-22, 00:47:00,VALID,915.734,VALID,0,VALID,99.8235,VALID,-0.101885,VALID,19.2787,VALID,218,VALID,0,
2000-11-22, 00:48:00,VALID,915.711,VALID,0,VALID,99.8057,VALID,-0.0509425,VALID,19.2842,VALID,220,VALID,0,
2000-11-22, 00:49:00,VALID,915.7,VALID,0,VALID,99.8159,VALID,0,VALID,19.3036,VALID,222,VALID,0,
2000-11-22, 00:50:01,VALID,915.689,VALID,0,VALID,99.821,VALID,0,VALID,19.2874,VALID,221,VALID,0,
2000-11-22, 00:51:01,VALID,915.669,VALID,0.2,VALID,99.8197,VALID,-0.0169808,VALID,19.2936,VALID,221,VALID,0,
2000-11-22, 00:52:00,VALID,915.656,VALID,0,VALID,99.8299,VALID,0,VALID,19.3033,VALID,221,VALID,0,
2000-11-22, 00:53:01,VALID,915.64,VALID,0,VALID,99.8222,VALID,0,VALID,19.3103,VALID,221,VALID,0,
2000-11-22, 00:54:01,VALID,915.629,VALID,0,VALID,99.8197,VALID,-0.0169808,VALID,19.3068,VALID,221,VALID,0,
2000-11-22, 00:55:01,VALID,915.615,VALID,0,VALID,99.8146,VALID,-0.0169808,VALID,19.3033,VALID,221,VALID,0,
2000-11-22, 00:56:01,VALID,915.597,VALID,0,VALID,99.7968,VALID,0.0169808,VALID,19.2936,VALID,221,VALID,0,
2000-11-22, 00:57:00,VALID,915.589,VALID,0,VALID,99.8057,VALID,0,VALID,19.2939,VALID,221,VALID,0,
2000-11-22, 00:58:00,VALID,915.576,VALID,0.2,VALID,99.8235,VALID,-0.0169808,VALID,19.2899,VALID,217,VALID,0,
2000-11-22, 00:59:01,VALID,915.558,VALID,0,VALID,99.7993,VALID,0,VALID,19.2971,VALID,195,VALID,0,
2000-11-22, 01:00:01,VALID,915.539,VALID,0,VALID,99.793,VALID,0,VALID,19.2809,VALID,190,VALID,0,
2000-11-22, 01:01:00,VALID,915.524,VALID,0,VALID,99.7828,VALID,0,VALID,19.2747,VALID,195,VALID,0.237054,
2000-11-22, 01:02:00,VALID,915.502,VALID,0,VALID,99.7828,VALID,0,VALID,19.2511,VALID,195,VALID,0.741753,
2000-11-22, 01:03:00,VALID,915.49,VALID,0.2,VALID,99.7943,VALID,0,VALID,19.2611,VALID,205,VALID,0.0920139,
2000-11-22, 01:04:01,VALID,915.473,VALID,0,VALID,99.7981,VALID,0,VALID,19.2842,VALID,201,VALID,0,
2000-11-22, 01:05:01,VALID,915.473,VALID,0,VALID,99.8006,VALID,0,VALID,19.2775,VALID,197,VALID,0.228824,
2000-11-22, 01:06:01,VALID,915.45,VALID,0,VALID,99.7765,VALID,-0.0169808,VALID,19.2772,VALID,213,VALID,0.541016,
2000-11-22, 01:07:00,VALID,915.448,VALID,0,VALID,99.7637,VALID,0,VALID,19.2549,VALID,203,VALID,0.414063,
2000-11-22, 01:08:01,VALID,915.427,VALID,0,VALID,99.7714,VALID,-0.0339617,VALID,19.2581,VALID,198,VALID,0.593956,
2000-11-22, 01:09:00,VALID,915.424,VALID,0,VALID,99.7587,VALID,-0.0169808,VALID,19.2385,VALID,215,VALID,0.465179,
2000-11-22, 01:10:01,VALID,915.414,VALID,0,VALID,99.7612,VALID,0,VALID,19.2389,VALID,201,VALID,0.520904,
2000-11-22, 01:11:00,VALID,915.391,VALID,0.2,VALID,99.7459,VALID,-0.0169808,VALID,19.2091,VALID,196,VALID,0.655101,
2000-11-22, 01:12:01,VALID,915.372,VALID,0,VALID,99.7408,VALID,-0.0339617,VALID,19.2193,VALID,187,VALID,0.550465,
2000-11-22, 01:13:01,VALID,915.36,VALID,0,VALID,99.7459,VALID,0.0169808,VALID,19.2064,VALID,224,VALID,0.679287,
2000-11-22, 01:14:01,VALID,915.347,VALID,0,VALID,99.765,VALID,-0.0169808,VALID,19.2064,VALID,215,VALID,0.423884,
2000-11-22, 01:15:01,VALID,915.329,VALID,0,VALID,99.7612,VALID,0,VALID,19.2228,VALID,210,VALID,0.592516,
2000-11-22, 01:16:01,VALID,915.327,VALID,0,VALID,99.7536,VALID,-0.0169808,VALID,19.2126,VALID,213,VALID,0.54375,
2000-11-22, 01:17:01,VALID,915.306,VALID,0,VALID,99.765,VALID,-0.0169808,VALID,19.2064,VALID,214,VALID,0.503571,
2000-11-22, 01:18:01,VALID,915.306,VALID,0,VALID,99.7701,VALID,0,VALID,19.2064,VALID,209,VALID,0.14974,
2000-11-22, 01:19:01,VALID,915.303,VALID,0,VALID,99.7803,VALID,-0.0169808,VALID,19.2159,VALID,208,VALID,0.000868056,
2000-11-22, 01:20:01,VALID,915.281,VALID,0,VALID,99.7841,VALID,-0.0339617,VALID,19.2293,VALID,207,VALID,0,
2000-11-22, 01:21:01,VALID,915.28,VALID,0,VALID,99.7879,VALID,-0.0169808,VALID,19.2389,VALID,207,VALID,0,
2000-11-22, 01:22:01,VALID,915.273,VALID,0,VALID,99.7943,VALID,-0.0169808,VALID,19.2419,VALID,207,VALID,0,
2000-11-22, 01:23:01,VALID,915.258,VALID,0,VALID,99.7866,VALID,-0.0169808,VALID,19.2389,VALID,237,VALID,0,
2000-11-22, 01:24:01,VALID,915.248,VALID,0.2,VALID,99.7841,VALID,-0.0169808,VALID,19.2457,VALID,236,VALID,0.164732,
2000-11-22, 01:25:01,VALID,915.236,VALID,0,VALID,99.7777,VALID,-0.0849042,VALID,19.2389,VALID,229,VALID,0.342061,
2000-11-22, 01:26:01,VALID,915.221,VALID,0,VALID,99.7739,VALID,-0.0169808,VALID,19.2288,VALID,226,VALID,0.231388,
2000-11-22, 01:27:01,VALID,915.191,VALID,0,VALID,99.7828,VALID,-0.0169808,VALID,19.2322,VALID,214,VALID,0.17652,
2000-11-22, 01:28:01,VALID,915.177,VALID,0,VALID,99.7879,VALID,0,VALID,19.229,VALID,206,VALID,0.196314,
2000-11-22, 01:29:01,VALID,915.166,VALID,0,VALID,99.7943,VALID,0,VALID,19.2156,VALID,198,VALID,0.407813,
2000-11-22, 01:30:01,VALID,915.141,VALID,0,VALID,99.7815,VALID,0,VALID,19.2156,VALID,191,VALID,0.35588,
2000-11-22, 01:31:01,VALID,915.119,VALID,0,VALID,99.7879,VALID,-0.0509425,VALID,19.2226,VALID,188,VALID,0.316071,
2000-11-22, 01:32:00,VALID,915.103,VALID,0,VALID,99.7815,VALID,-0.0169808,VALID,19.2131,VALID,188,VALID,0.317491,
2000-11-22, 01:33:00,VALID,915.087,VALID,0,VALID,99.7904,VALID,0.0339617,VALID,19.2089,VALID,188,VALID,0.300998,
2000-11-22, 01:34:00,VALID,915.068,VALID,0,VALID,99.7892,VALID,0.0509425,VALID,19.2022,VALID,187,VALID,0.343316,
2000-11-22, 01:35:00,VALID,915.059,VALID,0,VALID,99.8057,VALID,0.0679233,VALID,19.2151,VALID,187,VALID,0.0754523,
2000-11-22, 01:36:00,VALID,915.04,VALID,0,VALID,99.8171,VALID,0.0849042,VALID,19.2345,VALID,186,VALID,0.00434028,
2000-11-22, 01:37:00,VALID,915.031,VALID,0,VALID,99.8082,VALID,0.0849042,VALID,19.2273,VALID,173,VALID,0,
2000-11-22, 01:38:00,VALID,915.029,VALID,0,VALID,99.8019,VALID,0.0509425,VALID,19.228,VALID,152,VALID,0.31949,
2000-11-22, 01:39:00,VALID,915.021,VALID,0,VALID,99.7803,VALID,0.0169808,VALID,19.2087,VALID,165,VALID,0.527455,
2000-11-22, 01:40:00,VALID,915.004,VALID,0,VALID,99.7752,VALID,0.0509425,VALID,19.1861,VALID,181,VALID,0.549831,
2000-11-22, 01:41:00,VALID,914.99,VALID,0.2,VALID,99.7866,VALID,0.0849042,VALID,19.1726,VALID,171,VALID,0.227711,
2000-11-22, 01:42:00,VALID,914.979,VALID,0,VALID,99.7841,VALID,0.0679233,VALID,19.1667,VALID,169,VALID,0.544975,
2000-11-22, 01:43:00,VALID,914.972,VALID,0,VALID,99.7828,VALID,0.0849042,VALID,19.163,VALID,170,VALID,0.313902,
2000-11-22, 01:44:00,VALID,914.953,VALID,0,VALID,99.7879,VALID,0.0849042,VALID,19.1498,VALID,177,VALID,0.444196,
2000-11-22, 01:45:00,VALID,914.933,VALID,0,VALID,99.7943,VALID,0.101885,VALID,19.1496,VALID,191,VALID,0.216077,
2000-11-22, 01:46:00,VALID,914.916,VALID,0,VALID,99.793,VALID,0.101885,VALID,19.1597,VALID,180,VALID,0.0542411,
2000-11-22, 01:47:00,VALID,914.906,VALID,0,VALID,99.8108,VALID,0.0679233,VALID,19.1669,VALID,175,VALID,0,
2000-11-22, 01:48:00,VALID,914.897,VALID,0,VALID,99.8133,VALID,-0.0169808,VALID,19.1609,VALID,175,VALID,0,
2000-11-22, 01:49:00,VALID,914.882,VALID,0,VALID,99.826,VALID,-0.0339617,VALID,19.1873,VALID,176,VALID,0.0199653,
2000-11-22, 01:50:00,VALID,914.869,VALID,0,VALID,99.8171,VALID,0,VALID,19.1877,VALID,176,VALID,0,
2000-11-22, 01:51:00,VALID,914.856,VALID,0,VALID,99.821,VALID,-0.0339617,VALID,19.1803,VALID,176,VALID,0,
2000-11-22, 01:52:00,VALID,914.844,VALID,0,VALID,99.8248,VALID,-0.0169808,VALID,19.1803,VALID,179,VALID,0,
2000-11-22, 01:53:00,VALID,914.831,VALID,0,VALID,99.8337,VALID,0,VALID,19.2002,VALID,187,VALID,0,
2000-11-22, 01:54:00,VALID,914.819,VALID,0,VALID,99.8337,VALID,-0.0509425,VALID,19.1967,VALID,190,VALID,0,
2000-11-22, 01:55:00,VALID,914.796,VALID,0,VALID,99.8171,VALID,-0.0169808,VALID,19.1997,VALID,190,VALID,0,
2000-11-22, 01:56:00,VALID,914.786,VALID,0,VALID,99.8222,VALID,0,VALID,19.1999,VALID,191,VALID,0,
2000-11-22, 01:57:00,VALID,914.771,VALID,0,VALID,99.8222,VALID,0,VALID,19.2032,VALID,215,VALID,0,
2000-11-22, 01:58:00,VALID,914.759,VALID,0,VALID,99.8349,VALID,0,VALID,19.2069,VALID,228,VALID,0,
2000-11-22, 01:59:00,VALID,914.748,VALID,0,VALID,99.8159,VALID,-0.0509425,VALID,19.2136,VALID,222,VALID,0,
2000-11-22, 02:00:00,VALID,914.734,VALID,0,VALID,99.8299,VALID,-0.0169808,VALID,19.2096,VALID,222,VALID,0,
2000-11-22, 02:01:00,VALID,914.711,VALID,0,VALID,99.8197,VALID,0,VALID,19.2166,VALID,222,VALID,0,
2000-11-22, 02:02:00,VALID,914.701,VALID,0,VALID,99.8286,VALID,0,VALID,19.2161,VALID,222,VALID,0,
2000-11-22, 02:03:00,VALID,914.673,VALID,0,VALID,99.8273,VALID,0,VALID,19.2121,VALID,223,VALID,0,
2000-11-22, 02:04:00,VALID,914.659,VALID,0,VALID,99.8349,VALID,0.0169808,VALID,19.2154,VALID,223,VALID,0,
2000-11-22, 02:05:00,VALID,914.648,VALID,0,VALID,99.84,VALID,0,VALID,19.2089,VALID,223,VALID,0,
2000-11-22, 02:06:00,VALID,914.64,VALID,0,VALID,99.8311,VALID,0,VALID,19.2124,VALID,223,VALID,0,
2000-11-22, 02:07:00,VALID,914.626,VALID,0,VALID,99.8349,VALID,0,VALID,19.2124,VALID,223,VALID,0,
2000-11-22, 02:08:00,VALID,914.605,VALID,0,VALID,99.8311,VALID,0,VALID,19.2221,VALID,221,VALID,0,
2000-11-22, 02:09:00,VALID,914.599,VALID,0,VALID,99.8299,VALID,0.0169808,VALID,19.2156,VALID,221,VALID,0,
2000-11-22, 02:10:00,VALID,914.578,VALID,0,VALID,99.8438,VALID,0.0339617,VALID,19.2091,VALID,220,VALID,0,
2000-11-22, 02:11:00,VALID,914.555,VALID,0,VALID,99.8273,VALID,0,VALID,19.2156,VALID,216,VALID,0,
2000-11-22, 02:12:00,VALID,914.533,VALID,0,VALID,99.8197,VALID,0,VALID,19.1995,VALID,214,VALID,0,
2000-11-22, 02:13:00,VALID,914.516,VALID,0,VALID,99.8286,VALID,0,VALID,19.1831,VALID,214,VALID,0,
2000-11-22, 02:14:00,VALID,914.498,VALID,0,VALID,99.8362,VALID,0,VALID,19.1928,VALID,213,VALID,0,
2000-11-22, 02:15:00,VALID,914.483,VALID,0.2,VALID,99.8362,VALID,0.0339617,VALID,19.1833,VALID,212,VALID,0,
2000-11-22, 02:16:00,VALID,914.474,VALID,0,VALID,99.8388,VALID,0.0339617,VALID,19.1634,VALID,201,VALID,0,
2000-11-22, 02:17:00,VALID,914.459,VALID,0,VALID,99.826,VALID,0.0169808,VALID,19.1701,VALID,197,VALID,0,
2000-11-22, 02:18:00,VALID,914.448,VALID,0,VALID,99.8362,VALID,0.0339617,VALID,19.1672,VALID,188,VALID,0,
2000-11-22, 02:19:00,VALID,914.444,VALID,0,VALID,99.8464,VALID,0.0169808,VALID,19.1644,VALID,180,VALID,0,
2000-11-22, 02:20:00,VALID,914.444,VALID,0,VALID,99.8578,VALID,0.0339617,VALID,19.1644,VALID,165,VALID,0,
2000-11-22, 02:21:00,VALID,914.438,VALID,0,VALID,99.8438,VALID,0,VALID,19.1575,VALID,159,VALID,0,
2000-11-22, 02:22:00,VALID,914.444,VALID,0,VALID,99.854,VALID,0.0339617,VALID,19.1512,VALID,158,VALID,0,
2000-11-22, 02:23:00,VALID,914.44,VALID,0,VALID,99.8388,VALID,0.0169808,VALID,19.1279,VALID,157,VALID,0,
2000-11-22, 02:24:00,VALID,914.443,VALID,0,VALID,99.8375,VALID,0.0169808,VALID,19.1351,VALID,148,VALID,0,
2000-11-22, 02:25:00,VALID,914.441,VALID,0,VALID,99.8451,VALID,0,VALID,19.1284,VALID,137,VALID,0,
2000-11-22, 02:26:00,VALID,914.436,VALID,0,VALID,99.8438,VALID,0,VALID,19.1353,VALID,136,VALID,0,
2000-11-22, 02:27:00,VALID,914.433,VALID,0,VALID,99.8566,VALID,0,VALID,19.1378,VALID,134,VALID,0,
2000-11-22, 02:28:00,VALID,914.417,VALID,0,VALID,99.8604,VALID,0,VALID,19.1607,VALID,123,VALID,0,
2000-11-22, 02:29:00,VALID,914.415,VALID,0,VALID,99.8693,VALID,0,VALID,19.1639,VALID,116,VALID,0,
2000-11-22, 02:30:00,VALID,914.413,VALID,0,VALID,99.8655,VALID,0.0169808,VALID,19.1706,VALID,114,VALID,0,
2000-11-22, 02:31:00,VALID,914.41,VALID,0,VALID,99.8706,VALID,0.0339617,VALID,19.1771,VALID,114,VALID,0,
2000-11-22, 02:32:00,VALID,914.401,VALID,0,VALID,99.8845,VALID,0.0169808,VALID,19.1838,VALID,114,VALID,0,
2000-11-22, 02:33:00,VALID,914.398,VALID,0,VALID,99.8756,VALID,0,VALID,19.1895,VALID,114,VALID,0,
2000-11-22, 02:34:00,VALID,914.391,VALID,0,VALID,99.8731,VALID,0,VALID,19.1967,VALID,114,VALID,0,
2000-11-22, 02:35:00,VALID,914.378,VALID,0,VALID,99.8744,VALID,0.0339617,VALID,19.1798,VALID,114,VALID,0,
2000-11-22, 02:36:00,VALID,914.378,VALID,0,VALID,99.868,VALID,0.0169808,VALID,19.1768,VALID,114,VALID,0,
2000-11-22, 02:37:00,VALID,914.358,VALID,0,VALID,99.8807,VALID,0,VALID,19.1796,VALID,110,VALID,0,
2000-11-22, 02:38:00,VALID,914.349,VALID,0,VALID,99.8756,VALID,0.0339617,VALID,19.1967,VALID,104,VALID,0,
2000-11-22, 02:39:00,VALID,914.342,VALID,0,VALID,99.868,VALID,0,VALID,19.1607,VALID,104,VALID,0,
2000-11-22, 02:40:00,VALID,914.338,VALID,0,VALID,99.8578,VALID,0,VALID,19.1316,VALID,104,VALID,0,
2000-11-22, 02:41:00,VALID,914.314,VALID,0,VALID,99.8604,VALID,0,VALID,19.1279,VALID,104,VALID,0,
2000-11-22, 02:42:00,VALID,914.314,VALID,0,VALID,99.8744,VALID,0.0169808,VALID,19.1281,VALID,104,VALID,0,
2000-11-22, 02:43:00,VALID,914.298,VALID,0,VALID,99.8744,VALID,0.0169808,VALID,19.1371,VALID,104,VALID,0,
2000-11-22, 02:44:00,VALID,914.288,VALID,0,VALID,99.8858,VALID,0.0169808,VALID,19.1575,VALID,104,VALID,0,
2000-11-22, 02:45:00,VALID,914.295,VALID,0,VALID,99.8845,VALID,0,VALID,19.1609,VALID,104,VALID,0,
2000-11-22, 02:46:00,VALID,914.279,VALID,0,VALID,99.8871,VALID,0.0169808,VALID,19.1679,VALID,104,VALID,0,
2000-11-22, 02:47:00,VALID,914.257,VALID,0,VALID,99.8845,VALID,0,VALID,19.1607,VALID,104,VALID,0.0444878,
2000-11-22, 02:48:00,VALID,914.253,VALID,0,VALID,99.896,VALID,0.0169808,VALID,19.1704,VALID,108,VALID,0.446832,
2000-11-22, 02:49:00,VALID,914.237,VALID,0,VALID,99.8909,VALID,0,VALID,19.1766,VALID,108,VALID,0.542318,
2000-11-22, 02:50:00,VALID,914.234,VALID,0,VALID,99.8973,VALID,0.0509425,VALID,19.1828,VALID,108,VALID,0.564762,
2000-11-22, 02:51:00,VALID,914.24,VALID,0,VALID,99.9036,VALID,0.0169808,VALID,19.1895,VALID,109,VALID,0.42296,
2000-11-22, 02:52:00,VALID,914.238,VALID,0,VALID,99.9023,VALID,0,VALID,19.1992,VALID,109,VALID,0.236328,
2000-11-22, 02:53:00,VALID,914.244,VALID,0,VALID,99.9112,VALID,0,VALID,19.2057,VALID,109,VALID,0.0489309,
2000-11-22, 02:54:00,VALID,914.239,VALID,0,VALID,99.8985,VALID,0.0169808,VALID,19.1928,VALID,109,VALID,0,
2000-11-22, 02:55:00,VALID,914.237,VALID,0,VALID,99.8998,VALID,0,VALID,19.1833,VALID,109,VALID,0,
2000-11-22, 02:56:00,VALID,914.238,VALID,0,VALID,99.8922,VALID,0.0339617,VALID,19.1898,VALID,109,VALID,0,
2000-11-22, 02:57:00,VALID,914.24,VALID,0,VALID,99.8922,VALID,0.0339617,VALID,19.1895,VALID,109,VALID,0,
2000-11-22, 02:58:00,VALID,914.234,VALID,0,VALID,99.8973,VALID,0,VALID,19.1992,VALID,109,VALID,0,
2000-11-22, 02:59:00,VALID,914.225,VALID,0,VALID,99.9049,VALID,0,VALID,19.1669,VALID,109,VALID,0,
2000-11-22, 03:00:00,VALID,914.229,VALID,0,VALID,99.9036,VALID,0,VALID,19.1803,VALID,109,VALID,0,
2000-11-22, 03:01:00,VALID,914.22,VALID,0,VALID,99.8922,VALID,0,VALID,19.1508,VALID,109,VALID,0,
2000-11-22, 03:02:00,VALID,914.217,VALID,0,VALID,99.9036,VALID,0.0169808,VALID,19.1475,VALID,109,VALID,0,
2000-11-22, 03:03:00,VALID,914.216,VALID,0,VALID,99.9087,VALID,0.0169808,VALID,19.1512,VALID,109,VALID,0,
2000-11-22, 03:04:00,VALID,914.23,VALID,0,VALID,99.8934,VALID,0.0169808,VALID,19.1547,VALID,109,VALID,0,
2000-11-22, 03:05:00,VALID,914.228,VALID,0,VALID,99.8985,VALID,0.0169808,VALID,19.1383,VALID,109,VALID,0,
2000-11-22, 03:06:00,VALID,914.215,VALID,0,VALID,99.8947,VALID,0.0169808,VALID,19.1189,VALID,109,VALID,0,
2000-11-22, 03:07:00,VALID,914.219,VALID,0,VALID,99.8998,VALID,0.0169808,VALID,19.1095,VALID,83,VALID,0.0716146,
2000-11-22, 03:08:00,VALID,914.2,VALID,0,VALID,99.8922,VALID,0.0169808,VALID,19.0996,VALID,69,VALID,0.0374178,
2000-11-22, 03:09:00,VALID,914.208,VALID,0,VALID,99.9074,VALID,0,VALID,19.1125,VALID,92,VALID,0,
2000-11-22, 03:10:00,VALID,914.202,VALID,0,VALID,99.9214,VALID,0.0169808,VALID,19.1319,VALID,99,VALID,0.440667,
2000-11-22, 03:11:00,VALID,914.2,VALID,0,VALID,99.924,VALID,0.0509425,VALID,19.1515,VALID,91,VALID,0.544347,
2000-11-22, 03:12:00,VALID,914.203,VALID,0,VALID,99.9087,VALID,0,VALID,19.1485,VALID,73,VALID,0.451225,
2000-11-22, 03:13:00,VALID,914.205,VALID,0,VALID,99.9265,VALID,0.0339617,VALID,19.1418,VALID,100,VALID,0.369391,
2000-11-22, 03:14:00,VALID,914.212,VALID,0,VALID,99.9265,VALID,0,VALID,19.1607,VALID,100,VALID,0.421429,
2000-11-22, 03:15:00,VALID,914.21,VALID,0,VALID,99.9354,VALID,0.0169808,VALID,19.1739,VALID,102,VALID,0.355674,
2000-11-22, 03:16:00,VALID,914.208,VALID,0,VALID,99.9354,VALID,0.0169808,VALID,19.1997,VALID,102,VALID,0,
2000-11-22, 03:17:00,VALID,914.209,VALID,0,VALID,99.9354,VALID,0,VALID,19.2057,VALID,106,VALID,0.196832,
2000-11-22, 03:18:00,VALID,914.197,VALID,0,VALID,99.9341,VALID,-0.0679233,VALID,19.2168,VALID,105,VALID,0.681207,
2000-11-22, 03:19:00,VALID,914.179,VALID,0,VALID,99.9367,VALID,-0.0509425,VALID,19.2203,VALID,106,VALID,0.360026,
2000-11-22, 03:20:00,VALID,914.184,VALID,0,VALID,99.9303,VALID,-0.0849042,VALID,19.227,VALID,101,VALID,0.519942,
2000-11-22, 03:21:00,VALID,914.179,VALID,0,VALID,99.9316,VALID,-0.0679233,VALID,19.2332,VALID,105,VALID,0.530816,
2000-11-22, 03:22:00,VALID,914.177,VALID,0,VALID,99.929,VALID,-0.0679233,VALID,19.2203,VALID,104,VALID,0.227431,
2000-11-22, 03:23:00,VALID,914.184,VALID,0,VALID,99.9252,VALID,-0.0679233,VALID,19.2272,VALID,104,VALID,0,
2000-11-22, 03:24:00,VALID,914.184,VALID,0,VALID,99.929,VALID,-0.0849042,VALID,19.223,VALID,116,VALID,0,
2000-11-22, 03:25:00,VALID,914.173,VALID,0,VALID,99.9252,VALID,-0.101885,VALID,19.2238,VALID,168,VALID,0,
2000-11-22, 03:26:00,VALID,914.173,VALID,0,VALID,99.9265,VALID,-0.0679233,VALID,19.2168,VALID,184,VALID,0.0126379,
2000-11-22, 03:27:00,VALID,914.179,VALID,0,VALID,99.929,VALID,-0.101885,VALID,19.2141,VALID,122,VALID,0.200169,
2000-11-22, 03:28:00,VALID,914.183,VALID,0,VALID,99.9367,VALID,-0.0679233,VALID,19.2136,VALID,112,VALID,0,
2000-11-22, 03:29:00,VALID,914.183,VALID,0,VALID,99.9456,VALID,-0.101885,VALID,19.2305,VALID,110,VALID,0,
2000-11-22, 03:30:00,VALID,914.203,VALID,0,VALID,99.9494,VALID,-0.0849042,VALID,19.2464,VALID,109,VALID,0,
2000-11-22, 03:31:00,VALID,914.217,VALID,0,VALID,99.943,VALID,-0.0679233,VALID,19.2305,VALID,109,VALID,0,
2000-11-22, 03:32:00,VALID,914.232,VALID,0,VALID,99.9392,VALID,-0.0849042,VALID,19.224,VALID,109,VALID,0,
2000-11-22, 03:33:00,VALID,914.23,VALID,0,VALID,99.9405,VALID,-0.0339617,VALID,19.2166,VALID,109,VALID,0,
2000-11-22, 03:34:00,VALID,914.243,VALID,0,VALID,99.9418,VALID,0.0169808,VALID,19.2159,VALID,108,VALID,0,
2000-11-22, 03:35:00,VALID,914.251,VALID,0,VALID,99.9392,VALID,0.0509425,VALID,19.2188,VALID,101,VALID,0,
2000-11-22, 03:36:00,VALID,914.242,VALID,0,VALID,99.9316,VALID,0.0339617,VALID,19.2159,VALID,107,VALID,0.213325,
2000-11-22, 03:37:00,VALID,914.223,VALID,0,VALID,99.9341,VALID,0.0169808,VALID,19.1992,VALID,100,VALID,0.411892,
2000-11-22, 03:38:00,VALID,914.213,VALID,0,VALID,99.9379,VALID,0.0169808,VALID,19.1932,VALID,87,VALID,0.0803865,
2000-11-22, 03:39:00,VALID,914.225,VALID,0,VALID,99.9163,VALID,0.0509425,VALID,19.1055,VALID,354,VALID,0.177009,
2000-11-22, 03:40:00,VALID,914.224,VALID,0,VALID,99.9201,VALID,0.0849042,VALID,19.0996,VALID,72,VALID,0.303421,
2000-11-22, 03:41:00,VALID,914.24,VALID,0,VALID,99.9201,VALID,0,VALID,19.0891,VALID,95,VALID,0.804228,
2000-11-22, 03:42:00,VALID,914.248,VALID,0,VALID,99.9278,VALID,0.0339617,VALID,19.1157,VALID,109,VALID,0.568462,
2000-11-22, 03:43:00,VALID,914.247,VALID,0,VALID,99.9379,VALID,0.0509425,VALID,19.1155,VALID,109,VALID,0.35597,